62P/Tsuchinshan 1 (2023)

Japanese version
Home page
Updated on May 21, 2024

---------------------------------------------------------------------

* Profile

* Pictures

* Orbital Elements

Epoch 2024 Mar. 31.0 TT = JDT 2460400.5
T 2023 Dec. 25.11608 TT                                 Rudenko
q   1.2649495            (2000.0)            P               Q
n   0.15935882     Peri.   47.30267     -0.43555693     -0.89686758
a   3.3693954      Node    68.66704     +0.79985649     -0.42481353
e   0.6245767      Incl.    4.73758     +0.41294038     -0.12313407
P   6.18
>From 1499 observations 2023 Aug. 29-2024 Mar. 19, mean residual 0".5.
     Nongravitational parameters A1 = +0.51, A2 = +0.6836.

* Finding Charts

* Magnitudes Graph

        m1 = 10.0 + 5 log d + 30.0 log r  [    ,-100]  (             - 2023 Sept.16)
        m1 =  3.0 + 5 log d + 60   log r  [-100,   0]  (2023 Sept.16 - 2023 Dec. 25)
        m1 =  6.0 + 5 log d + 30.0 log r  [   0,    ]  (2023 Dec. 25 -             )

---------------------------------------------------------------------

The orbital elements are published on M.P.E.C. 2024-F34.
The charts are made with StellaNavigator Ver.10 (AstroArts).
The magnitudes graphs are made with Comet for Windows.

---------------------------------------------------------------------

Copyright(C) Seiichi Yoshida (comet@aerith.net). All rights reserved.